Regional Weather Roundup
Issued by NWS Albany, NY

Home | Current Version | Previous Version | Text Only | Print | Product List | Glossary On
Versions: 1 2 3 4 5 6 7 8 9 10 11 12 13 14 15 16 17 18 19 20 21 22 23 24 25 26 27 28 29 30 31 32 33 34 35 36 37 38 39 40 41 42 43 44 45 46 47 48 49 50
000
ASUS41 KALY 060010
RWRALY

NEW YORK STATE HOURLY WEATHER ROUNDUP
NATIONAL WEATHER SERVICE ALBANY NY
800 PM EDT TUE MAY 05 2015

NOTE: "FAIR" INDICATES FEW OR NO CLOUDS BELOW 12,000 FEET WITH NO
SIGNIFICANT WEATHER AND/OR NO OBSTRUCTIONS TO VISIBILITY.

NYZ032-033-038>043-046>054-057>066-NYZ062>081-060100-
EAST


CITY           SKY/WX    TMP DP  RH WIND       PRES   REMARKS
ALBANY         CLOUDY    69  34  27 W7        30.18R
GLENS FALLS    CLOUDY    66  40  38 N5        30.18R
POUGHKEEPSIE   CLEAR     76  47  35 NW8       30.13R
NEWBURGH       PTCLDY    75  43  31 NW7       30.15R
MONTGOMERY     PTCLDY    75  42  30 W5        30.14R
WHITE PLAINS   MOCLDY    69  51  52 VRB6      30.16R
ISLIP          CLOUDY    65  50  58 SW6       30.16R
NEW YORK CITY  CLOUDY    71  52  50 S12       30.15R
CENTRAL PARK   CLOUDY    73  51  46 VRB3      30.19R
$$

NYZ005>009-017-018-044>046-055-056-060100-
CENTRAL


CITY           SKY/WX    TMP DP  RH WIND       PRES   REMARKS
FULTON         CLOUDY    59  38  45 CALM      30.25R
SYRACUSE       CLOUDY    62  39  42 N8        30.24R
ROME           CLOUDY    63  43  48 NW5       30.24R
ELMIRA         LGT RAIN  62  54  74 E5        30.24R
BINGHAMTON     CLOUDY    65  44  46 N10       30.23R
MONTICELLO     CLOUDY    70  37  30 NW6       30.22R
$$

NYZ026>034-041>043-060100-
NORTH


CITY           SKY/WX    TMP DP  RH WIND       PRES   REMARKS
WATERTOWN      CLOUDY    58  43  57 SW3       30.24R
FORT DRUM      NOT AVBL
MASSENA        MOCLDY    61  35  37 SW6       30.23R
SARANAC LAKE   MOCLDY    57  34  41 W3        30.23R
PLATTSBURGH    CLOUDY    62  30  29 NW5       30.22R
$$

NYZ001>004-010>016-019>021-060100-
WEST


CITY           SKY/WX    TMP DP  RH WIND       PRES   REMARKS
NIAGARA FALLS  LGT RAIN  53  48  83 CALM      30.25S
BUFFALO        LGT RAIN  61  53  75 NW3       30.25S
DUNKIRK        LGT RAIN  54  52  93 N3        30.27R FOG
JAMESTOWN      CLOUDY    52  48  87 E7        30.26F
WELLSVILLE     LGT RAIN  58  52  80 NE5       30.28R
ROCHESTER      CLOUDY    61  43  51 N5        30.26S
PENN YAN       CLOUDY    62  49  62 CALM      30.26R
$$

             KEY
       WCI = WIND CHILL INDEX
       VSB = VISIBILITY
       HX  = HEAT INDEX
$$



USA.gov is the U.S. government's official web portal to all federal, state and local government web resources and services.